STARLINK-11648, 63313

Orbit data source: Space-Track

STARLINK-11648, 63313 is a payload satellite owned by SpaceX/Seattle (US) in LEO that was launched on Tue, 18 Mar 2025 UTC via an FALCON 9 launch vehicle from the Air Force Eastern Test Range (AFETR). Payload-class satellites include a variety of spacecraft equipped with specific instruments for various scientific and technological missions. These include communications satellites like Starlink; space stations such as the ISS; scientific satellites like the Hubble; Earth observation satellites from companies like Planet Labs, Umbra, and HawkEye 360; GPS; miniature CubeSats for education and research; and military/defense satellites.

Loading next visibility...
Identifier
63313, 2025-057G
Orbit
LEO
Last TLE update
7 hours ago
Origin
Manufacturer
SpaceX/Seattle
Mission
Operational Commercial Communications
Bus & Motor
STARLINK V2M, Unknown motor
Mass
730 kg wet, ~700 kg dry
Launch date (UTC)
2025-03-18 (2 months ago)
Launch vehicle
FALCON 9
Launch site
Air Force Eastern Test Range (AFETR)
Object type
Payload
Rocket body
Debris
Shape & HBR
Box + 2 Pan, 29 m
Radar Cross Section
36.964 m², Large (>1 m²)

Expand to show TLE details & history

TLE from 7 hours ago
0 STARLINK-11648
1 63313U 25057G   25128.92422618 -.00000249  00000-0  15540-5 0  9993
2 63313  42.9993 301.7640 0001860 279.2285  80.8372 15.70828629  9246
Epoch: 2025-05-08T22:10Z
Definitive object data (Epoch: 2025-05-08T22:10:53.141Z)
Latitude
-0.00005°
Longitude
102.05478°
Altitude
356.099 km
Speed
7.697 km/s
True Right ascension
20h 07m 03s
True Declination
0° 00' 00"
Sunlit
Object was in daylight at TLE epoch
Visualization TLE readout
Latitude
21.86051°
Longitude
-104.96513°
Altitude
356.898 km
Speed
7.698 km/s
Apparent Right ascension
04h 03m 53s
Apparent Declination
-10° 20' 16"
Sunlit
Object is in daylight
Visualization observer readout
Local Sidereal Time
13:03:05
Azimuth
293.749° NW
Elevation
-40.301°
Doppler factor
1
Orbital elements
Apogee altitude
359.762 km
Perigee altitude
357.256 km
Semi-major axis
6,736.646 km
Eccentricity
0.000186
Inclination
42.9993°
RAAN
301.764°
Arg. of periapsis
279.2285°
True anomaly
80.85824°
Mean anomaly
80.8372°
Eccentric anomaly
80.84772°
Mean motion
3.92534 °/min
BSTAR
0.000001554
Orbital period
91.71 mins
Loading maneuver chart data...
Loading SW <> Apogee altitude chart data...
Loading historical data...
Loading historical data...
Loading historical data...
Loading historical data...
Loading historical data...
Loading historical data...
Loading historical data...

STARLINK-11648 Visibility forecast

Observer location: undefined°, undefined°

Span
Click to sort rows by Start time (UTC) header in descending order
Start Az.
Max El. time (UTC)
Max El. Az.
Max El.
End time (UTC)
End Az.
5 mins2025-05-09 15:11:30.348Z228.757° WSW2025-05-09 15:14:30.348Z121.583° SE33.896°2025-05-09 15:16:30.348Z81.372° E
4 mins2025-05-09 16:48:30.348Z283.268° WNW2025-05-09 16:50:30.348Z19.445° NNE35.837°2025-05-09 16:52:30.348Z66.141° ENE
|